Location: Peebles
(55.6412°N, 3.1714°W)
Time: 15:42:47
(UTC+01:00)

deb Agena D - Pass Details

Date: 17 September 2024
Orbit: 793 x 976 km, 99.8° (Epoch: 03 October)

Event Time Altitude Azimuth Distance (km) Brightness Sun altitude
Rises 04:04:16 0° 17° (NNE) 3,414 10.3 -21.9°
Reaches altitude 10° 04:06:36 10° 15° (NNE) 2,499 9.4 -21.7°
Maximum altitude 04:12:06 69° 294° (WNW) 949 6.3 -21.1°
Enters shadow 04:14:09 40° 224° (SW) 1,290 6.6 -20.9°
